User: anonymous   Login
Location: Unspecified
(0.0000°N, 0.0000°E)
Time: 10:03:08
(UTC+00:00)
Language:

COBE - Orbit

View from above orbital plane
View from above orbital plane
View from above satellite
View from above satellite

Ground track
Ground track

The orbit data is extracted from the following two-line orbital elements,

1 20322U 89089A   19083.64205807 +.00000180 +00000-0 +13946-3 0  9991
2 20322 098.9251 100.0422 0007660 262.7938 203.4302 14.04841808503718
Epoch (UTC): 24 March 2019 15:24:33
Eccentricity: 0.0007660
inclination: 98.9251°
perigee height: 871 km
apogee height: 882 km
right ascension of ascending node: 100.0422°
argument of perigee: 262.7938°
revolutions per day: 14.04841808
mean anomaly at epoch: 203.4302°
orbit number at epoch: 50371

The dashed part of the orbit path shows where the satellite is in the earth's shadow,  

DLR